Wink, TX

12:36 PM CDT on July 22, 2017 (GMT -0500)
Winkler County

Weather History for KINK - December, 2012

Change the Weather History Date:

Wednesday, December 12, 2012

  Actual Average Record
Temperature  
Mean Temperature 40 °F -  
Max Temperature 64 °F 60 °F 82 °F (1993)
Min Temperature 17 °F 27 °F 7 °F (1989)
Degree Days  
Heating Degree Days 24    
Moisture  
Dew Point 8 °F    
Average Humidity 29    
Maximum Humidity 50    
Minimum Humidity 11    
Precipitation  
Precipitation 0.00 in - - ()
Sea Level Pressure  
Sea Level Pressure 30.10 in    
Wind  
Wind Speed 5 mph (SE)    
Max Wind Speed 13 mph    
Max Gust Speed -    
Visibility 10 miles    
Events      
Averages and records for this station are not official NWS values.
T = Trace of Precipitation, MM = Missing Value Source: NWS Daily Summary

Daily Weather History Graph

Daily Weather History Graph

Search for Another Location

Airport or City:

Trip Planner

Search our weather history database for the weather conditions in past years. The results will help you decide how hot, cold, wet, or windy it might be!

Date:

Astronomy

Dec. 12, 2012 Rise Set
Actual Time 7:43 AM CST 5:49 PM CST
Civil Twilight 7:16 AM CST 6:16 PM CST
Nautical Twilight 6:46 AM CST 6:47 PM CST
Astronomical Twilight 6:16 AM CST 7:16 PM CST
Moon 6:51 AM CST (12/12) 5:28 PM CST (12/12)
Length of Visible Light 10h 59m
Length of Day
10h 06m
Waning Crescent, 1% of the Moon is Illuminated
Dec 12
Waning Crescent
Dec 13
New
Dec 19
First Quarter
Dec 28
Full
Jan 4
Last Quarter

Hourly Weather History & Observations

Time (CST) Temp. Windchill Dew Point Humidity Pressure Visibility Wind Dir Wind Speed Gust Speed Precip Events Conditions
12:53 AM 26.1 °F 21.9 °F 3.0 °F 37% 30.13 in 10.0 mi NNW 3.5 mph - N/A   Clear
1:53 AM 21.9 °F 14.5 °F 1.9 °F 42% 30.13 in 10.0 mi North 5.8 mph - N/A   Clear
2:53 AM 21.0 °F 14.6 °F 1.0 °F 42% 30.13 in 10.0 mi NNE 4.6 mph - N/A   Clear
3:53 AM 19.0 °F 12.3 °F 1.0 °F 46% 30.12 in 10.0 mi North 4.6 mph - N/A   Clear
4:53 AM 19.0 °F 13.9 °F 1.0 °F 46% 30.12 in 10.0 mi North 3.5 mph - N/A   Clear
5:53 AM 18.0 °F 9.8 °F -0.0 °F 45% 30.14 in 10.0 mi NNW 5.8 mph - N/A   Clear
6:53 AM 17.1 °F 8.7 °F 1.0 °F 50% 30.17 in 10.0 mi North 5.8 mph - N/A   Clear
7:53 AM 18.0 °F - 1.0 °F 48% 30.19 in 10.0 mi Calm Calm - N/A   Clear
8:53 AM 26.1 °F - 5.0 °F 41% 30.19 in 10.0 mi Calm Calm - N/A   Clear
9:53 AM 36.0 °F - 9.0 °F 33% 30.18 in 10.0 mi Calm Calm - N/A   Clear
10:53 AM 46.9 °F - 9.0 °F 21% 30.16 in 10.0 mi South 8.1 mph - N/A   Clear
11:53 AM 54.0 °F - 8.1 °F 16% 30.13 in 10.0 mi SSE 6.9 mph - N/A   Clear
12:53 PM 60.1 °F - 7.0 °F 12% 30.07 in 10.0 mi South 9.2 mph - N/A   Clear
1:53 PM 62.1 °F - 9.0 °F 12% 30.04 in 10.0 mi South 6.9 mph - N/A   Clear
2:53 PM 64.0 °F - 7.0 °F 11% 30.02 in 10.0 mi South 8.1 mph - N/A   Clear
3:53 PM 64.0 °F - 8.1 °F 11% 30.01 in 10.0 mi SE 5.8 mph - N/A   Clear
4:53 PM 64.9 °F - 10.0 °F 12% 30.01 in 10.0 mi SSE 10.4 mph - N/A   Clear
5:53 PM 57.9 °F - 10.0 °F 15% 30.02 in 10.0 mi SSE 4.6 mph - N/A   Clear
6:53 PM 50.0 °F - 10.9 °F 21% 30.05 in 10.0 mi SE 5.8 mph - N/A   Clear
7:53 PM 51.1 °F - 14.0 °F 23% 30.07 in 10.0 mi ESE 11.5 mph - N/A   Clear
8:53 PM 48.0 °F - 15.1 °F 27% 30.08 in 10.0 mi SE 9.2 mph - N/A   Clear
9:53 PM 46.9 °F - 15.1 °F 28% 30.07 in 10.0 mi SE 11.5 mph - N/A   Clear
10:53 PM 45.0 °F 38.9 °F 16.0 °F 31% 30.07 in 10.0 mi SE 12.7 mph - N/A   Clear
11:53 PM 42.1 °F 36.1 °F 18.0 °F 38% 30.06 in 10.0 mi SE 10.4 mph - N/A   Clear